,,Stat6,,Stat2,,Stat8,,Stat9,,Stat10,,Wind1,,Wind1,
time,status,PA1M_AVG,status,PR1M_SUM,status,RH1M_AVG,status,SR1M_AVG,status,TA1M_AVG,status,W1dAve1m,status,W1sAve1m,
2004-10-29, 00:00:00,VALID,917.799,VALID,0,VALID,98.7045,VALID,-0.0169808,VALID,19.9645,VALID,19,VALID,0.0134171,
2004-10-29, 00:01:00,VALID,917.793,VALID,0,VALID,98.8329,VALID,-0.0679233,VALID,19.9578,VALID,19,VALID,0,
2004-10-29, 00:02:00,VALID,917.799,VALID,0,VALID,98.9194,VALID,0,VALID,19.9315,VALID,19,VALID,0,
2004-10-29, 00:03:00,VALID,917.79,VALID,0,VALID,98.9537,VALID,-0.0509425,VALID,19.9295,VALID,19,VALID,0.0996094,
2004-10-29, 00:04:00,VALID,917.783,VALID,0,VALID,98.9588,VALID,-0.0169808,VALID,19.926,VALID,19,VALID,0.301258,
2004-10-29, 00:05:00,VALID,917.781,VALID,0,VALID,98.8584,VALID,-0.0339617,VALID,19.893,VALID,20,VALID,0.375545,
2004-10-29, 00:06:00,VALID,917.767,VALID,0,VALID,98.8088,VALID,-0.0169808,VALID,19.8642,VALID,72,VALID,0.412246,
2004-10-29, 00:07:00,VALID,917.758,VALID,0,VALID,98.7859,VALID,-0.0509425,VALID,19.855,VALID,100,VALID,0.516715,
2004-10-29, 00:08:00,VALID,917.761,VALID,0,VALID,98.7528,VALID,-0.0169808,VALID,19.8448,VALID,116,VALID,0.59707,
2004-10-29, 00:09:00,VALID,917.77,VALID,0,VALID,98.7274,VALID,0,VALID,19.8408,VALID,101,VALID,0.62779,
2004-10-29, 00:10:00,VALID,917.767,VALID,0,VALID,98.6396,VALID,-0.0339617,VALID,19.8416,VALID,102,VALID,0.506445,
2004-10-29, 00:11:00,VALID,917.756,VALID,0,VALID,98.7566,VALID,-0.0169808,VALID,19.848,VALID,120,VALID,0.609375,
2004-10-29, 00:12:00,VALID,917.749,VALID,0,VALID,98.8723,VALID,-0.0169808,VALID,19.8513,VALID,153,VALID,0.764535,
2004-10-29, 00:13:00,VALID,917.751,VALID,0,VALID,98.969,VALID,-0.0169808,VALID,19.8252,VALID,157,VALID,0.932355,
2004-10-29, 00:14:00,VALID,917.745,VALID,0,VALID,99.0694,VALID,0,VALID,19.7993,VALID,156,VALID,1.07329,
2004-10-29, 00:15:00,VALID,917.761,VALID,0,VALID,99.1686,VALID,-0.0169808,VALID,19.7864,VALID,155,VALID,1.06858,
2004-10-29, 00:16:00,VALID,917.759,VALID,0,VALID,99.2894,VALID,0,VALID,19.7705,VALID,160,VALID,1.01793,
2004-10-29, 00:17:00,VALID,917.782,VALID,0,VALID,99.3861,VALID,-0.0509425,VALID,19.7807,VALID,166,VALID,0.883854,
2004-10-29, 00:18:00,VALID,917.777,VALID,0,VALID,99.4509,VALID,-0.0339617,VALID,19.7874,VALID,165,VALID,0.595846,
2004-10-29, 00:19:00,VALID,917.784,VALID,0,VALID,99.5158,VALID,-0.0339617,VALID,19.7743,VALID,165,VALID,0.374589,
2004-10-29, 00:20:00,VALID,917.775,VALID,0,VALID,99.5895,VALID,-0.0169808,VALID,19.7708,VALID,165,VALID,0.187119,
2004-10-29, 00:21:00,VALID,917.785,VALID,0,VALID,99.7205,VALID,-0.0509425,VALID,19.781,VALID,164,VALID,0.289453,
2004-10-29, 00:22:00,VALID,917.795,VALID,0,VALID,99.8744,VALID,-0.0339617,VALID,19.7907,VALID,161,VALID,0.301448,
2004-10-29, 00:23:00,VALID,917.779,VALID,0,VALID,99.9405,VALID,-0.0509425,VALID,19.7837,VALID,160,VALID,0.15734,
2004-10-29, 00:24:00,VALID,917.784,VALID,0,VALID,99.9941,VALID,-0.0169808,VALID,19.7869,VALID,160,VALID,0,
2004-10-29, 00:25:00,VALID,917.784,VALID,0,VALID,100,VALID,-0.0679233,VALID,19.8036,VALID,160,VALID,0.0199855,
2004-10-29, 00:26:00,VALID,917.77,VALID,0,VALID,100,VALID,-0.0849042,VALID,19.7971,VALID,160,VALID,0.382422,
2004-10-29, 00:27:00,VALID,917.758,VALID,0,VALID,100,VALID,-0.0849042,VALID,19.7777,VALID,160,VALID,0.572218,
2004-10-29, 00:28:00,VALID,917.755,VALID,0,VALID,100,VALID,-0.0509425,VALID,19.7847,VALID,148,VALID,0.550694,
2004-10-29, 00:29:00,VALID,917.741,VALID,0,VALID,100,VALID,-0.0679233,VALID,19.7653,VALID,154,VALID,0.542436,
2004-10-29, 00:30:00,VALID,917.71,VALID,0,VALID,100,VALID,-0.0679233,VALID,19.7584,VALID,148,VALID,0.571801,
2004-10-29, 00:31:00,VALID,917.715,VALID,0,VALID,100,VALID,-0.0679233,VALID,19.7482,VALID,149,VALID,0.492746,
2004-10-29, 00:32:00,VALID,917.692,VALID,0,VALID,100,VALID,-0.0339617,VALID,19.7519,VALID,148,VALID,0.302641,
2004-10-29, 00:33:00,VALID,917.676,VALID,0,VALID,100,VALID,-0.0679233,VALID,19.7522,VALID,144,VALID,0.295397,
2004-10-29, 00:34:00,VALID,917.668,VALID,0,VALID,100,VALID,-0.0679233,VALID,19.7417,VALID,144,VALID,0.0821221,
2004-10-29, 00:35:00,VALID,917.649,VALID,0,VALID,100,VALID,-0.0339617,VALID,19.7586,VALID,145,VALID,0.198038,
2004-10-29, 00:36:00,VALID,917.647,VALID,0,VALID,100,VALID,-0.0509425,VALID,19.7517,VALID,147,VALID,0.246003,
2004-10-29, 00:37:00,VALID,917.646,VALID,0,VALID,100,VALID,-0.0339617,VALID,19.7517,VALID,149,VALID,0.311133,
2004-10-29, 00:38:00,VALID,917.646,VALID,0,VALID,100,VALID,-0.0339617,VALID,19.7584,VALID,118,VALID,0.212843,
2004-10-29, 00:39:00,VALID,917.649,VALID,0,VALID,100,VALID,-0.0169808,VALID,19.7385,VALID,155,VALID,0.51029,
2004-10-29, 00:40:00,VALID,917.654,VALID,0,VALID,100,VALID,-0.0339617,VALID,19.739,VALID,146,VALID,0.196039,
2004-10-29, 00:41:00,VALID,917.662,VALID,0,VALID,100,VALID,-0.0339617,VALID,19.7489,VALID,146,VALID,0,
2004-10-29, 00:42:00,VALID,917.646,VALID,0,VALID,100,VALID,-0.0339617,VALID,19.7387,VALID,148,VALID,0.116461,
2004-10-29, 00:43:00,VALID,917.638,VALID,0,VALID,100,VALID,-0.0509425,VALID,19.7484,VALID,149,VALID,0,
2004-10-29, 00:44:00,VALID,917.63,VALID,0,VALID,100,VALID,-0.0339617,VALID,19.7651,VALID,149,VALID,0,
2004-10-29, 00:45:00,VALID,917.618,VALID,0,VALID,100,VALID,0.0339617,VALID,19.7738,VALID,149,VALID,0.0716146,
2004-10-29, 00:46:00,VALID,917.613,VALID,0,VALID,100,VALID,0.0679233,VALID,19.776,VALID,149,VALID,0.0868676,
2004-10-29, 00:47:00,VALID,917.639,VALID,0,VALID,100,VALID,0.0849042,VALID,19.7921,VALID,149,VALID,0.371838,
2004-10-29, 00:48:00,VALID,917.634,VALID,0,VALID,100,VALID,0.0679233,VALID,19.7951,VALID,193,VALID,0.580669,
2004-10-29, 00:49:00,VALID,917.625,VALID,0,VALID,100,VALID,0.0509425,VALID,19.7959,VALID,291,VALID,0.307049,
2004-10-29, 00:50:00,VALID,917.624,VALID,0,VALID,100,VALID,0.0849042,VALID,19.7757,VALID,306,VALID,0.436012,
2004-10-29, 00:51:00,VALID,917.622,VALID,0,VALID,100,VALID,0.0849042,VALID,19.7849,VALID,309,VALID,0.121701,
2004-10-29, 00:52:00,VALID,917.616,VALID,0,VALID,100,VALID,0.0849042,VALID,19.7951,VALID,309,VALID,0,
2004-10-29, 00:53:00,VALID,917.612,VALID,0,VALID,100,VALID,0.0339617,VALID,19.7921,VALID,309,VALID,0,
2004-10-29, 00:54:00,VALID,917.61,VALID,0,VALID,100,VALID,0.0509425,VALID,19.7857,VALID,309,VALID,0,
2004-10-29, 00:55:00,VALID,917.602,VALID,0,VALID,100,VALID,0.0509425,VALID,19.7991,VALID,309,VALID,0,
2004-10-29, 00:56:00,VALID,917.583,VALID,0,VALID,100,VALID,0.0679233,VALID,19.8021,VALID,309,VALID,0,
2004-10-29, 00:57:00,VALID,917.565,VALID,0,VALID,100,VALID,0.0849042,VALID,19.808,VALID,309,VALID,0.0108613,
2004-10-29, 00:58:00,VALID,917.55,VALID,0,VALID,100,VALID,0.0509425,VALID,19.7986,VALID,309,VALID,0.0287064,
2004-10-29, 00:59:00,VALID,917.528,VALID,0,VALID,100,VALID,0.0679233,VALID,19.8048,VALID,269,VALID,0.409549,
2004-10-29, 01:00:00,VALID,917.497,VALID,0,VALID,100,VALID,0.0509425,VALID,19.8182,VALID,243,VALID,0.332122,
2004-10-29, 01:01:00,VALID,917.491,VALID,0,VALID,100,VALID,0.0339617,VALID,19.8147,VALID,243,VALID,0.284299,
2004-10-29, 01:02:00,VALID,917.466,VALID,0,VALID,100,VALID,0.101885,VALID,19.8113,VALID,243,VALID,0.0570494,
2004-10-29, 01:03:00,VALID,917.471,VALID,0,VALID,100,VALID,0.0509425,VALID,19.815,VALID,243,VALID,0.221112,
2004-10-29, 01:04:00,VALID,917.456,VALID,0,VALID,100,VALID,0.0339617,VALID,19.8277,VALID,243,VALID,0,
2004-10-29, 01:05:00,VALID,917.457,VALID,0,VALID,100,VALID,0.0849042,VALID,19.8378,VALID,243,VALID,0.0701265,
2004-10-29, 01:06:00,VALID,917.468,VALID,0,VALID,99.998,VALID,0.0849042,VALID,19.8274,VALID,244,VALID,0.160866,
2004-10-29, 01:07:00,VALID,917.44,VALID,0,VALID,99.9402,VALID,0.0339617,VALID,19.8242,VALID,243,VALID,0,
2004-10-29, 01:08:00,VALID,917.42,VALID,0,VALID,99.8731,VALID,0.0849042,VALID,19.8018,VALID,243,VALID,0,
2004-10-29, 01:09:00,VALID,917.408,VALID,0,VALID,99.8159,VALID,0.0509425,VALID,19.7854,VALID,243,VALID,0,
2004-10-29, 01:10:00,VALID,917.385,VALID,0,VALID,99.7434,VALID,0.0509425,VALID,19.7633,VALID,244,VALID,0,
2004-10-29, 01:11:00,VALID,917.368,VALID,0,VALID,99.7459,VALID,0.0679233,VALID,19.7566,VALID,243,VALID,0,
2004-10-29, 01:12:00,VALID,917.357,VALID,0,VALID,99.8121,VALID,0.101885,VALID,19.7502,VALID,243,VALID,0,
2004-10-29, 01:13:00,VALID,917.337,VALID,0,VALID,99.8273,VALID,0.101885,VALID,19.7569,VALID,244,VALID,0,
2004-10-29, 01:14:00,VALID,917.319,VALID,0,VALID,99.8184,VALID,0.0509425,VALID,19.7395,VALID,243,VALID,0,
2004-10-29, 01:15:00,VALID,917.317,VALID,0,VALID,99.8667,VALID,0.0679233,VALID,19.7531,VALID,244,VALID,0,
2004-10-29, 01:16:00,VALID,917.308,VALID,0,VALID,99.807,VALID,0.0509425,VALID,19.7626,VALID,243,VALID,0,
2004-10-29, 01:17:00,VALID,917.293,VALID,0,VALID,99.7714,VALID,0.0509425,VALID,19.783,VALID,243,VALID,0,
2004-10-29, 01:18:00,VALID,917.294,VALID,0,VALID,99.6951,VALID,0.0679233,VALID,19.8115,VALID,243,VALID,0,
2004-10-29, 01:19:00,VALID,917.276,VALID,0,VALID,99.4153,VALID,0.0339617,VALID,19.8341,VALID,198,VALID,0.475038,
2004-10-29, 01:20:00,VALID,917.279,VALID,0,VALID,99.2246,VALID,0.0849042,VALID,19.8215,VALID,129,VALID,0.704799,
2004-10-29, 01:21:00,VALID,917.262,VALID,0,VALID,99.2411,VALID,0.0849042,VALID,19.8011,VALID,129,VALID,0.587081,
2004-10-29, 01:22:00,VALID,917.245,VALID,0,VALID,99.0923,VALID,0.0679233,VALID,19.8078,VALID,132,VALID,0.647347,
2004-10-29, 01:23:00,VALID,917.212,VALID,0,VALID,98.9703,VALID,0.0849042,VALID,19.818,VALID,95,VALID,0.589286,
2004-10-29, 01:24:00,VALID,917.189,VALID,0,VALID,98.9181,VALID,0.0679233,VALID,19.8207,VALID,83,VALID,0.600836,
2004-10-29, 01:25:00,VALID,917.162,VALID,0,VALID,98.9766,VALID,0.101885,VALID,19.8048,VALID,101,VALID,0.61814,
2004-10-29, 01:26:00,VALID,917.142,VALID,0,VALID,99.0707,VALID,0.0849042,VALID,19.7916,VALID,124,VALID,0.934126,
2004-10-29, 01:27:00,VALID,917.111,VALID,0,VALID,99.0847,VALID,0.0849042,VALID,19.782,VALID,128,VALID,0.994243,
2004-10-29, 01:28:00,VALID,917.09,VALID,0,VALID,99.1012,VALID,0.0339617,VALID,19.776,VALID,133,VALID,0.71532,
2004-10-29, 01:29:00,VALID,917.068,VALID,0,VALID,99.105,VALID,0.0679233,VALID,19.7889,VALID,139,VALID,0.868786,
2004-10-29, 01:30:00,VALID,917.052,VALID,0,VALID,99.1178,VALID,0.0169808,VALID,19.7728,VALID,150,VALID,0.918786,
2004-10-29, 01:31:00,VALID,917.033,VALID,0,VALID,99.147,VALID,-0.0339617,VALID,19.7869,VALID,144,VALID,0.682776,
2004-10-29, 01:32:00,VALID,917.028,VALID,0,VALID,99.2602,VALID,0,VALID,19.7872,VALID,149,VALID,0.863467,
2004-10-29, 01:33:00,VALID,917.016,VALID,0,VALID,99.3937,VALID,-0.0169808,VALID,19.7775,VALID,155,VALID,0.961133,
2004-10-29, 01:34:00,VALID,917.007,VALID,0,VALID,99.5336,VALID,-0.0169808,VALID,19.7546,VALID,153,VALID,1.1804,
2004-10-29, 01:35:00,VALID,916.996,VALID,0,VALID,99.6785,VALID,-0.0339617,VALID,19.7392,VALID,149,VALID,0.856213,
2004-10-29, 01:36:00,VALID,917.001,VALID,0,VALID,99.821,VALID,-0.0509425,VALID,19.7261,VALID,153,VALID,0.79633,
2004-10-29, 01:37:00,VALID,916.985,VALID,0,VALID,99.9583,VALID,0,VALID,19.7002,VALID,155,VALID,0.509909,
2004-10-29, 01:38:00,VALID,916.955,VALID,0,VALID,99.999,VALID,-0.0169808,VALID,19.6896,VALID,150,VALID,0.663043,
2004-10-29, 01:39:00,VALID,916.933,VALID,0,VALID,100,VALID,-0.0339617,VALID,19.6873,VALID,148,VALID,0.926711,
2004-10-29, 01:40:00,VALID,916.911,VALID,0,VALID,100,VALID,-0.0339617,VALID,19.6811,VALID,150,VALID,0.732244,
2004-10-29, 01:41:00,VALID,916.902,VALID,0,VALID,100,VALID,0,VALID,19.658,VALID,159,VALID,0.613991,
2004-10-29, 01:42:00,VALID,916.863,VALID,0,VALID,100,VALID,0,VALID,19.6515,VALID,160,VALID,0.676491,
2004-10-29, 01:43:00,VALID,916.851,VALID,0,VALID,100,VALID,-0.0169808,VALID,19.6416,VALID,146,VALID,0.566761,
2004-10-29, 01:44:00,VALID,916.843,VALID,0,VALID,100,VALID,-0.0169808,VALID,19.6352,VALID,143,VALID,0.861133,
2004-10-29, 01:45:00,VALID,916.828,VALID,0,VALID,100,VALID,-0.0849042,VALID,19.6424,VALID,142,VALID,0.787729,
2004-10-29, 01:46:00,VALID,916.821,VALID,0,VALID,100,VALID,-0.0849042,VALID,19.6262,VALID,140,VALID,0.892578,
2004-10-29, 01:47:00,VALID,916.82,VALID,0,VALID,100,VALID,-0.101885,VALID,19.6227,VALID,132,VALID,0.955915,
2004-10-29, 01:48:00,VALID,916.826,VALID,0,VALID,100,VALID,-0.0679233,VALID,19.6292,VALID,133,VALID,0.730469,
2004-10-29, 01:49:00,VALID,916.822,VALID,0,VALID,100,VALID,-0.0849042,VALID,19.6262,VALID,127,VALID,0.588796,
2004-10-29, 01:50:00,VALID,916.82,VALID,0,VALID,100,VALID,-0.0849042,VALID,19.6292,VALID,134,VALID,0.454688,
2004-10-29, 01:51:00,VALID,916.817,VALID,0,VALID,100,VALID,-0.0509425,VALID,19.619,VALID,144,VALID,0.5383,
2004-10-29, 01:52:00,VALID,916.811,VALID,0,VALID,100,VALID,-0.0679233,VALID,19.6391,VALID,145,VALID,0.550249,
2004-10-29, 01:53:00,VALID,916.806,VALID,0,VALID,100,VALID,-0.0679233,VALID,19.6322,VALID,151,VALID,0.789595,
2004-10-29, 01:54:00,VALID,916.801,VALID,0,VALID,100,VALID,-0.0849042,VALID,19.6458,VALID,164,VALID,0.523082,
2004-10-29, 01:55:00,VALID,916.798,VALID,0,VALID,100,VALID,-0.0679233,VALID,19.6558,VALID,165,VALID,0.702363,
2004-10-29, 01:56:00,VALID,916.783,VALID,0,VALID,100,VALID,-0.0169808,VALID,19.6384,VALID,156,VALID,0.383003,
2004-10-29, 01:57:00,VALID,916.772,VALID,0,VALID,100,VALID,-0.0849042,VALID,19.6548,VALID,167,VALID,0.444949,
2004-10-29, 01:58:00,VALID,916.771,VALID,0,VALID,100,VALID,-0.0849042,VALID,19.6548,VALID,178,VALID,0.650985,
2004-10-29, 01:59:00,VALID,916.773,VALID,0,VALID,100,VALID,-0.0849042,VALID,19.6612,VALID,170,VALID,0.468941,
2004-10-29, 02:00:00,VALID,916.77,VALID,0,VALID,100,VALID,-0.0679233,VALID,19.6647,VALID,179,VALID,0.513445,
2004-10-29, 02:01:00,VALID,916.784,VALID,0,VALID,100,VALID,-0.0679233,VALID,19.6679,VALID,174,VALID,0.783612,
2004-10-29, 02:02:00,VALID,916.762,VALID,0,VALID,100,VALID,-0.0849042,VALID,19.6712,VALID,175,VALID,0.75093,
2004-10-29, 02:03:00,VALID,916.75,VALID,0,VALID,100,VALID,-0.0679233,VALID,19.6746,VALID,179,VALID,0.578291,
2004-10-29, 02:04:00,VALID,916.749,VALID,0,VALID,100,VALID,-0.0509425,VALID,19.6744,VALID,189,VALID,0.415879,
2004-10-29, 02:05:00,VALID,916.744,VALID,0,VALID,100,VALID,-0.0849042,VALID,19.694,VALID,176,VALID,0.480283,
2004-10-29, 02:06:00,VALID,916.743,VALID,0,VALID,100,VALID,-0.0509425,VALID,19.6938,VALID,160,VALID,0.555469,
2004-10-29, 02:07:00,VALID,916.738,VALID,0,VALID,100,VALID,-0.101885,VALID,19.704,VALID,163,VALID,0.631785,
2004-10-29, 02:08:00,VALID,916.718,VALID,0,VALID,100,VALID,-0.0509425,VALID,19.7032,VALID,172,VALID,0.39881,
2004-10-29, 02:09:00,VALID,916.726,VALID,0,VALID,100,VALID,-0.0849042,VALID,19.7233,VALID,175,VALID,0.324033,
2004-10-29, 02:10:00,VALID,916.726,VALID,0,VALID,99.9906,VALID,-0.0679233,VALID,19.7293,VALID,158,VALID,0.322852,
2004-10-29, 02:11:00,VALID,916.728,VALID,0,VALID,99.9621,VALID,-0.101885,VALID,19.7462,VALID,154,VALID,0.225472,
2004-10-29, 02:12:00,VALID,916.73,VALID,0,VALID,99.9138,VALID,-0.0849042,VALID,19.7358,VALID,154,VALID,0.368608,
2004-10-29, 02:13:00,VALID,916.716,VALID,0,VALID,99.8057,VALID,-0.101885,VALID,19.7417,VALID,154,VALID,0.511111,
2004-10-29, 02:14:00,VALID,916.708,VALID,0,VALID,99.7765,VALID,-0.0849042,VALID,19.7452,VALID,157,VALID,0.235709,
2004-10-29, 02:15:00,VALID,916.708,VALID,0,VALID,99.7485,VALID,-0.0849042,VALID,19.7613,VALID,159,VALID,0.148628,
2004-10-29, 02:16:00,VALID,916.693,VALID,0,VALID,99.7116,VALID,-0.101885,VALID,19.7782,VALID,160,VALID,0.16915,
2004-10-29, 02:17:00,VALID,916.679,VALID,0,VALID,99.5857,VALID,-0.0339617,VALID,19.768,VALID,203,VALID,0.476004,
2004-10-29, 02:18:00,VALID,916.679,VALID,0,VALID,99.4713,VALID,-0.101885,VALID,19.772,VALID,194,VALID,0.803163,
2004-10-29, 02:19:00,VALID,916.685,VALID,0,VALID,99.3683,VALID,-0.0849042,VALID,19.7782,VALID,179,VALID,0.558689,
2004-10-29, 02:20:00,VALID,916.7,VALID,0,VALID,99.2704,VALID,-0.0509425,VALID,19.7877,VALID,175,VALID,0.0731027,
2004-10-29, 02:21:00,VALID,916.703,VALID,0,VALID,99.2551,VALID,-0.0849042,VALID,19.7907,VALID,150,VALID,0.169695,
2004-10-29, 02:22:01,VALID,916.691,VALID,0,VALID,99.2551,VALID,-0.101885,VALID,19.7869,VALID,58,VALID,0.720312,
2004-10-29, 02:23:01,VALID,916.672,VALID,0,VALID,99.2398,VALID,-0.0509425,VALID,19.7802,VALID,43,VALID,0.556463,
2004-10-29, 02:24:00,VALID,916.654,VALID,0,VALID,99.278,VALID,-0.0509425,VALID,19.778,VALID,43,VALID,0.267442,
2004-10-29, 02:25:00,VALID,916.627,VALID,0,VALID,99.4344,VALID,-0.0849042,VALID,19.7715,VALID,43,VALID,0.0710565,
2004-10-29, 02:26:00,VALID,916.599,VALID,0,VALID,99.3695,VALID,-0.0679233,VALID,19.7524,VALID,43,VALID,0.256177,
2004-10-29, 02:27:00,VALID,916.587,VALID,0,VALID,99.3276,VALID,-0.0849042,VALID,19.7298,VALID,43,VALID,0.0320122,
2004-10-29, 02:28:00,VALID,916.573,VALID,0,VALID,99.3835,VALID,-0.0849042,VALID,19.6975,VALID,43,VALID,0.372852,
2004-10-29, 02:29:01,VALID,916.564,VALID,0,VALID,99.4738,VALID,-0.0849042,VALID,19.6846,VALID,43,VALID,0.536395,
2004-10-29, 02:30:00,VALID,916.543,VALID,0,VALID,99.5972,VALID,-0.0849042,VALID,19.6585,VALID,43,VALID,0.615327,
2004-10-29, 02:31:01,VALID,916.528,VALID,0,VALID,99.6417,VALID,-0.0849042,VALID,19.6488,VALID,43,VALID,0.438262,
2004-10-29, 02:32:00,VALID,916.499,VALID,0,VALID,99.6709,VALID,-0.0849042,VALID,19.6329,VALID,43,VALID,0.336301,
2004-10-29, 02:33:01,VALID,916.487,VALID,0,VALID,99.6887,VALID,-0.101885,VALID,19.6101,VALID,43,VALID,0.313227,
2004-10-29, 02:34:00,VALID,916.456,VALID,0,VALID,99.751,VALID,-0.0849042,VALID,19.5939,VALID,49,VALID,0.443105,
2004-10-29, 02:35:00,VALID,916.446,VALID,0,VALID,99.8756,VALID,-0.101885,VALID,19.5872,VALID,76,VALID,0.370739,
2004-10-29, 02:36:00,VALID,916.431,VALID,0,VALID,99.8896,VALID,-0.0679233,VALID,19.5807,VALID,83,VALID,0.53746,
2004-10-29, 02:37:01,VALID,916.424,VALID,0,VALID,99.8718,VALID,-0.0679233,VALID,19.5783,VALID,95,VALID,0.624238,
2004-10-29, 02:38:00,VALID,916.422,VALID,0,VALID,99.8629,VALID,-0.101885,VALID,19.5519,VALID,95,VALID,0.602539,
2004-10-29, 02:39:00,VALID,916.4,VALID,0,VALID,99.8731,VALID,-0.0679233,VALID,19.5323,VALID,94,VALID,0.698361,
2004-10-29, 02:40:00,VALID,916.383,VALID,0,VALID,99.972,VALID,-0.0849042,VALID,19.5167,VALID,94,VALID,0.74657,
2004-10-29, 02:41:01,VALID,916.349,VALID,0,VALID,99.998,VALID,-0.101885,VALID,19.5067,VALID,90,VALID,0.737805,
2004-10-29, 02:42:00,VALID,916.343,VALID,0,VALID,99.983,VALID,-0.0679233,VALID,19.4968,VALID,101,VALID,0.723722,
2004-10-29, 02:43:00,VALID,916.329,VALID,0,VALID,99.9265,VALID,-0.0849042,VALID,19.4742,VALID,107,VALID,0.603561,
2004-10-29, 02:44:00,VALID,916.307,VALID,0,VALID,99.9893,VALID,-0.101885,VALID,19.4647,VALID,100,VALID,0.845109,
2004-10-29, 02:45:00,VALID,916.307,VALID,0,VALID,99.9916,VALID,-0.0509425,VALID,19.4511,VALID,98,VALID,0.900923,
2004-10-29, 02:46:00,VALID,916.308,VALID,0,VALID,100,VALID,0.0339617,VALID,19.4511,VALID,104,VALID,1.15701,
2004-10-29, 02:47:00,VALID,916.29,VALID,0,VALID,100,VALID,0.0339617,VALID,19.4409,VALID,100,VALID,1.07885,
2004-10-29, 02:48:01,VALID,916.277,VALID,0,VALID,100,VALID,0.0169808,VALID,19.4608,VALID,111,VALID,1.15288,
2004-10-29, 02:49:00,VALID,916.272,VALID,0,VALID,100,VALID,0.0339617,VALID,19.4538,VALID,100,VALID,0.767721,
2004-10-29, 02:50:00,VALID,916.257,VALID,0,VALID,100,VALID,0.0339617,VALID,19.4635,VALID,126,VALID,0.991071,
2004-10-29, 02:51:00,VALID,916.254,VALID,0,VALID,100,VALID,0.0509425,VALID,19.4504,VALID,129,VALID,1.18278,
2004-10-29, 02:52:00,VALID,916.26,VALID,0,VALID,100,VALID,0.0169808,VALID,19.4702,VALID,113,VALID,1.07369,
2004-10-29, 02:53:01,VALID,916.27,VALID,0,VALID,100,VALID,0.0339617,VALID,19.4769,VALID,111,VALID,0.776526,
2004-10-29, 02:54:00,VALID,916.283,VALID,0,VALID,100,VALID,0,VALID,19.4667,VALID,114,VALID,1.10503,
2004-10-29, 02:55:00,VALID,916.287,VALID,0,VALID,100,VALID,0.0169808,VALID,19.4799,VALID,125,VALID,0.873397,
2004-10-29, 02:56:00,VALID,916.279,VALID,0,VALID,100,VALID,0,VALID,19.4732,VALID,115,VALID,1.38463,
2004-10-29, 02:57:00,VALID,916.298,VALID,0,VALID,99.9941,VALID,0.0169808,VALID,19.4826,VALID,99,VALID,0.620908,
2004-10-29, 02:58:00,VALID,916.285,VALID,0,VALID,99.9468,VALID,0.0509425,VALID,19.4797,VALID,112,VALID,0.662972,
2004-10-29, 02:59:00,VALID,916.297,VALID,0,VALID,99.9896,VALID,0.0339617,VALID,19.4829,VALID,133,VALID,0.96733,
2004-10-29, 03:00:01,VALID,916.297,VALID,0,VALID,99.9908,VALID,0.0169808,VALID,19.4802,VALID,146,VALID,0.494913,
2004-10-29, 03:01:00,VALID,916.282,VALID,0,VALID,99.9896,VALID,-0.0339617,VALID,19.4682,VALID,131,VALID,0.749645,
2004-10-29, 03:02:01,VALID,916.273,VALID,0,VALID,100,VALID,-0.0339617,VALID,19.4714,VALID,109,VALID,1.06973,
2004-10-29, 03:03:00,VALID,916.27,VALID,0,VALID,100,VALID,-0.0509425,VALID,19.4712,VALID,138,VALID,0.635069,
2004-10-29, 03:04:00,VALID,916.269,VALID,0,VALID,100,VALID,-0.0169808,VALID,19.4615,VALID,126,VALID,0.938643,
2004-10-29, 03:05:01,VALID,916.249,VALID,0,VALID,100,VALID,-0.0679233,VALID,19.4488,VALID,140,VALID,0.652043,
2004-10-29, 03:06:01,VALID,916.238,VALID,0,VALID,100,VALID,-0.0509425,VALID,19.4622,VALID,134,VALID,0.962891,
2004-10-29, 03:07:00,VALID,916.217,VALID,0,VALID,100,VALID,-0.0849042,VALID,19.4384,VALID,140,VALID,0.96804,
2004-10-29, 03:08:01,VALID,916.196,VALID,0,VALID,100,VALID,-0.0169808,VALID,19.4553,VALID,132,VALID,0.709302,
2004-10-29, 03:09:00,VALID,916.182,VALID,0,VALID,100,VALID,-0.0169808,VALID,19.4451,VALID,137,VALID,0.836496,
2004-10-29, 03:10:00,VALID,916.15,VALID,0,VALID,100,VALID,-0.0509425,VALID,19.4521,VALID,133,VALID,0.716146,
2004-10-29, 03:11:00,VALID,916.139,VALID,0,VALID,100,VALID,-0.0339617,VALID,19.4555,VALID,148,VALID,0.35026,
2004-10-29, 03:12:01,VALID,916.109,VALID,0,VALID,100,VALID,-0.0849042,VALID,19.4526,VALID,149,VALID,0.553544,
2004-10-29, 03:13:00,VALID,916.1,VALID,0,VALID,100,VALID,-0.0679233,VALID,19.4421,VALID,149,VALID,0.71582,
2004-10-29, 03:14:00,VALID,916.084,VALID,0,VALID,100,VALID,-0.0339617,VALID,19.426,VALID,150,VALID,0.793229,
2004-10-29, 03:15:01,VALID,916.087,VALID,0,VALID,100,VALID,0.0169808,VALID,19.429,VALID,138,VALID,0.601362,
2004-10-29, 03:16:00,VALID,916.096,VALID,0,VALID,100,VALID,0.0679233,VALID,19.4086,VALID,142,VALID,1.09003,
2004-10-29, 03:17:00,VALID,916.078,VALID,0,VALID,100,VALID,0.0509425,VALID,19.4086,VALID,148,VALID,1.09427,
2004-10-29, 03:18:00,VALID,916.087,VALID,0,VALID,100,VALID,0.0339617,VALID,19.4086,VALID,151,VALID,1.15015,
2004-10-29, 03:19:00,VALID,916.082,VALID,0,VALID,100,VALID,0.0509425,VALID,19.3962,VALID,146,VALID,1.10137,
2004-10-29, 03:20:00,VALID,916.084,VALID,0,VALID,100,VALID,0.0509425,VALID,19.3761,VALID,126,VALID,0.854833,
2004-10-29, 03:21:01,VALID,916.101,VALID,0,VALID,100,VALID,0.0679233,VALID,19.393,VALID,129,VALID,0.925223,
2004-10-29, 03:22:00,VALID,916.096,VALID,0,VALID,100,VALID,0.0509425,VALID,19.3537,VALID,122,VALID,1.07392,
2004-10-29, 03:23:00,VALID,916.087,VALID,0,VALID,100,VALID,0.0679233,VALID,19.3311,VALID,114,VALID,1.05723,
2004-10-29, 03:24:00,VALID,916.073,VALID,0,VALID,100,VALID,0.0849042,VALID,19.3085,VALID,115,VALID,0.863782,
2004-10-29, 03:25:01,VALID,916.063,VALID,0,VALID,100,VALID,0.101885,VALID,19.2991,VALID,133,VALID,0.699128,
2004-10-29, 03:26:01,VALID,916.043,VALID,0,VALID,100,VALID,0.0679233,VALID,19.2728,VALID,138,VALID,0.451349,
2004-10-29, 03:27:00,VALID,916.033,VALID,0,VALID,100,VALID,0.0509425,VALID,19.2795,VALID,129,VALID,0.942383,
2004-10-29, 03:28:00,VALID,916.03,VALID,0,VALID,100,VALID,0.0509425,VALID,19.2762,VALID,114,VALID,1.3532,
2004-10-29, 03:29:00,VALID,916.042,VALID,0,VALID,100,VALID,0.0509425,VALID,19.2633,VALID,123,VALID,0.943359,
2004-10-29, 03:30:00,VALID,916.063,VALID,0,VALID,100,VALID,0.0169808,VALID,19.2514,VALID,131,VALID,0.838415,
2004-10-29, 03:31:01,VALID,916.081,VALID,0,VALID,100,VALID,-0.0339617,VALID,19.2422,VALID,123,VALID,1.16198,
2004-10-29, 03:32:00,VALID,916.088,VALID,0,VALID,100,VALID,-0.0849042,VALID,19.236,VALID,117,VALID,0.878729,
2004-10-29, 03:33:01,VALID,916.09,VALID,0,VALID,100,VALID,-0.0849042,VALID,19.2233,VALID,110,VALID,0.974787,
2004-10-29, 03:34:00,VALID,916.09,VALID,0,VALID,100,VALID,-0.0509425,VALID,19.2074,VALID,112,VALID,0.557776,